Time,TemperatureF,DewpointF,PressureIn,WindDirection,WindDirectionDegrees,WindSpeedMPH,WindSpeedGustMPH,Humidity,HourlyPrecipIn,Conditions,Clouds,dailyrainin,SoftwareType,DateUTC
2013-03-07 00:01:00,26.3,24.0,30.32,NW,316,3.0,3.0,91,0.00,,,0.00,Wunderground v.1.15,2013-03-07 05:01:00,
2013-03-07 00:06:00,26.3,24.0,30.32,NW,317,2.0,22.0,91,0.00,,,0.00,Wunderground v.1.15,2013-03-07 05:06:00,
2013-03-07 00:11:00,26.3,23.8,30.32,NW,309,3.0,3.0,90,0.00,,,0.00,Wunderground v.1.15,2013-03-07 05:11:00,
2013-03-07 00:16:00,26.3,23.8,30.32,North,355,3.0,5.0,90,0.00,,,0.00,Wunderground v.1.15,2013-03-07 05:16:00,
2013-03-07 00:21:00,26.3,23.8,30.33,WNW,296,3.0,22.0,90,0.00,,,0.00,Wunderground v.1.15,2013-03-07 05:21:00,
2013-03-07 00:26:00,26.3,23.8,30.33,NW,309,3.0,22.0,90,0.00,,,0.00,Wunderground v.1.15,2013-03-07 05:26:00,
2013-03-07 00:41:00,26.3,23.8,30.33,NW,313,3.0,3.0,90,0.00,,,0.00,Wunderground v.1.15,2013-03-07 05:41:00,
2013-03-07 00:46:00,26.3,23.5,30.33,NW,308,2.0,22.0,89,0.00,,,0.00,Wunderground v.1.15,2013-03-07 05:46:00,
2013-03-07 00:51:00,26.3,23.5,30.33,WNW,302,2.0,2.0,89,0.00,,,0.00,Wunderground v.1.15,2013-03-07 05:51:00,
2013-03-07 00:56:00,26.2,23.4,30.32,North,349,2.0,22.0,89,0.00,,,0.00,Wunderground v.1.15,2013-03-07 05:56:00,
2013-03-07 01:01:00,26.2,23.4,30.32,NW,315,2.0,22.0,89,0.00,,,0.00,Wunderground v.1.15,2013-03-07 06:01:00,
2013-03-07 01:11:00,26.1,23.0,30.33,NW,304,2.0,2.0,88,0.00,,,0.00,Wunderground v.1.15,2013-03-07 06:11:00,
2013-03-07 01:16:00,26.0,22.9,30.33,NNW,337,2.0,4.0,88,0.00,,,0.00,Wunderground v.1.15,2013-03-07 06:16:00,
2013-03-07 01:21:00,25.9,22.8,30.33,NW,313,2.0,2.0,88,0.00,,,0.00,Wunderground v.1.15,2013-03-07 06:21:00,
2013-03-07 01:26:00,25.9,22.8,30.33,NW,313,2.0,22.0,88,0.00,,,0.00,Wunderground v.1.15,2013-03-07 06:26:00,
2013-03-07 01:31:00,25.9,22.8,30.33,WNW,296,2.0,22.0,88,0.00,,,0.00,Wunderground v.1.15,2013-03-07 06:31:00,
2013-03-07 01:36:00,25.9,22.8,30.34,NW,313,2.0,22.0,88,0.00,,,0.00,Wunderground v.1.15,2013-03-07 06:36:00,
2013-03-07 01:46:00,25.8,22.7,30.33,North,360,1.0,3.0,88,0.00,,,0.00,Wunderground v.1.15,2013-03-07 06:46:00,
2013-03-07 01:51:00,25.7,22.6,30.34,NNW,345,2.0,22.0,88,0.00,,,0.00,Wunderground v.1.15,2013-03-07 06:51:00,
2013-03-07 01:56:00,25.6,22.3,30.34,NNW,340,3.0,22.0,87,0.00,,,0.00,Wunderground v.1.15,2013-03-07 06:56:00,
2013-03-07 02:01:00,25.5,22.2,30.34,NW,304,2.0,2.0,87,0.00,,,0.00,Wunderground v.1.15,2013-03-07 07:01:00,
2013-03-07 02:06:00,25.4,22.1,30.34,North,350,1.0,22.0,87,0.00,,,0.00,Wunderground v.1.15,2013-03-07 07:06:00,
2013-03-07 02:16:00,25.3,22.0,30.34,NNW,334,1.0,22.0,87,0.00,,,0.00,Wunderground v.1.15,2013-03-07 07:16:00,
2013-03-07 02:21:00,25.2,21.9,30.34,NW,308,1.0,22.0,87,0.00,,,0.00,Wunderground v.1.15,2013-03-07 07:21:00,
2013-03-07 02:26:00,25.2,21.9,30.34,ENE,59,1.0,22.0,87,0.00,,,0.00,Wunderground v.1.15,2013-03-07 07:26:00,
2013-03-07 02:31:00,25.1,21.8,30.34,NW,307,1.0,1.0,87,0.00,,,0.00,Wunderground v.1.15,2013-03-07 07:31:00,
2013-03-07 02:36:00,25.0,21.7,30.34,NW,319,2.0,2.0,87,0.00,,,0.00,Wunderground v.1.15,2013-03-07 07:36:00,
2013-03-07 02:41:00,24.9,21.6,30.34,NW,320,2.0,22.0,87,0.00,,,0.00,Wunderground v.1.15,2013-03-07 07:41:00,
2013-03-07 02:46:00,24.9,21.3,30.34,North,350,1.0,22.0,86,0.00,,,0.00,Wunderground v.1.15,2013-03-07 07:46:00,
2013-03-07 02:51:00,24.8,21.2,30.34,NNW,330,1.0,22.0,86,0.00,,,0.00,Wunderground v.1.15,2013-03-07 07:51:00,
2013-03-07 02:56:00,24.8,21.2,30.35,NW,310,1.0,22.0,86,0.00,,,0.00,Wunderground v.1.15,2013-03-07 07:56:00,
2013-03-07 03:01:00,24.8,21.2,30.35,NW,313,1.0,22.0,86,0.00,,,0.00,Wunderground v.1.15,2013-03-07 08:01:00,
2013-03-07 03:06:00,24.8,21.2,30.34,NNW,344,1.0,22.0,86,0.00,,,0.00,Wunderground v.1.15,2013-03-07 08:06:00,
2013-03-07 03:11:00,24.7,21.1,30.34,NNW,334,1.0,1.0,86,0.00,,,0.00,Wunderground v.1.15,2013-03-07 08:11:00,
2013-03-07 03:21:00,24.7,20.8,30.34,NNW,333,1.0,22.0,85,0.00,,,0.00,Wunderground v.1.15,2013-03-07 08:21:00,
2013-03-07 03:26:00,24.6,20.7,30.35,NNW,348,1.0,22.0,85,0.00,,,0.00,Wunderground v.1.15,2013-03-07 08:26:00,
2013-03-07 03:31:00,24.7,20.8,30.35,NNW,329,0.0,22.0,85,0.00,,,0.00,Wunderground v.1.15,2013-03-07 08:31:00,
2013-03-07 03:36:00,24.7,20.8,30.35,WNW,298,0.0,22.0,85,0.00,,,0.00,Wunderground v.1.15,2013-03-07 08:36:00,
2013-03-07 03:41:00,24.6,20.7,30.35,NNW,331,1.0,1.0,85,0.00,,,0.00,Wunderground v.1.15,2013-03-07 08:41:00,
2013-03-07 03:46:00,24.6,20.7,30.35,NW,315,1.0,22.0,85,0.00,,,0.00,Wunderground v.1.15,2013-03-07 08:46:00,
2013-03-07 03:56:00,24.7,20.8,30.35,NW,307,0.0,22.0,85,0.00,,,0.00,Wunderground v.1.15,2013-03-07 08:56:00,
2013-03-07 04:01:00,24.6,20.7,30.35,NNW,341,1.0,1.0,85,0.00,,,0.00,Wunderground v.1.15,2013-03-07 09:01:00,
2013-03-07 04:11:00,24.7,20.6,30.35,North,355,1.0,22.0,84,0.00,,,0.00,Wunderground v.1.15,2013-03-07 09:11:00,
2013-03-07 04:16:00,24.7,20.6,30.35,NNW,327,1.0,22.0,84,0.00,,,0.00,Wunderground v.1.15,2013-03-07 09:16:00,
2013-03-07 04:21:00,24.7,20.3,30.35,NNW,340,1.0,1.0,83,0.00,,,0.00,Wunderground v.1.15,2013-03-07 09:21:00,
2013-03-07 04:26:00,24.6,20.5,30.36,NW,324,1.0,22.0,84,0.00,,,0.00,Wunderground v.1.15,2013-03-07 09:26:00,
2013-03-07 04:36:00,24.6,20.2,30.36,NW,321,1.0,22.0,83,0.00,,,0.00,Wunderground v.1.15,2013-03-07 09:36:00,
2013-03-07 04:45:00,24.6,20.2,30.36,NW,317,0.0,22.0,83,0.00,,,0.00,Wunderground v.1.15,2013-03-07 09:45:00,
2013-03-07 04:50:00,24.6,20.2,30.36,NW,323,0.0,22.0,83,0.00,,,0.00,Wunderground v.1.15,2013-03-07 09:50:00,
2013-03-07 05:00:00,24.7,20.3,30.36,NW,319,0.0,22.0,83,0.00,,,0.00,Wunderground v.1.15,2013-03-07 10:00:00,
2013-03-07 05:06:00,24.7,20.3,30.36,NNW,342,0.0,22.0,83,0.00,,,0.00,Wunderground v.1.15,2013-03-07 10:06:00,
2013-03-07 05:11:00,24.7,20.0,30.36,NNW,343,0.0,22.0,82,0.00,,,0.00,Wunderground v.1.15,2013-03-07 10:11:00,
2013-03-07 05:16:00,24.8,20.1,30.36,NNW,337,1.0,22.0,82,0.00,,,0.00,Wunderground v.1.15,2013-03-07 10:16:00,
2013-03-07 05:26:00,24.7,20.0,30.36,NW,322,0.0,22.0,82,0.00,,,0.00,Wunderground v.1.15,2013-03-07 10:26:00,
2013-03-07 05:36:00,24.7,20.0,30.36,NW,323,0.0,22.0,82,0.00,,,0.00,Wunderground v.1.15,2013-03-07 10:36:00,
2013-03-07 05:41:00,24.8,20.1,30.36,NW,323,0.0,22.0,82,0.00,,,0.00,Wunderground v.1.15,2013-03-07 10:41:00,
2013-03-07 05:46:00,24.8,20.1,30.36,NW,323,0.0,22.0,82,0.00,,,0.00,Wunderground v.1.15,2013-03-07 10:46:00,
2013-03-07 05:51:00,24.8,20.1,30.36,NW,323,0.0,22.0,82,0.00,,,0.00,Wunderground v.1.15,2013-03-07 10:51:00,
2013-03-07 06:01:00,24.8,20.1,30.36,NW,323,0.0,22.0,82,0.00,,,0.00,Wunderground v.1.15,2013-03-07 11:01:00,
2013-03-07 06:06:00,24.9,20.2,30.36,NW,323,0.0,22.0,82,0.00,,,0.00,Wunderground v.1.15,2013-03-07 11:06:00,
2013-03-07 06:11:00,24.9,20.2,30.36,NW,323,0.0,22.0,82,0.00,,,0.00,Wunderground v.1.15,2013-03-07 11:11:00,
2013-03-07 06:16:00,24.9,20.2,30.36,NNW,346,0.0,22.0,82,0.00,,,0.00,Wunderground v.1.15,2013-03-07 11:16:00,
2013-03-07 06:26:00,24.9,20.2,30.36,NW,322,0.0,22.0,82,0.00,,,0.00,Wunderground v.1.15,2013-03-07 11:26:00,
2013-03-07 06:30:00,25.0,20.3,30.37,NW,322,0.0,22.0,82,0.00,,,0.00,Wunderground v.1.15,2013-03-07 11:30:00,
2013-03-07 06:35:00,25.0,20.3,30.37,NNW,337,0.0,22.0,82,0.00,,,0.00,Wunderground v.1.15,2013-03-07 11:35:00,
2013-03-07 06:41:00,25.0,20.3,30.37,NW,313,0.0,22.0,82,0.00,,,0.00,Wunderground v.1.15,2013-03-07 11:41:00,
2013-03-07 06:46:00,25.0,20.3,30.37,NW,313,0.0,22.0,82,0.00,,,0.00,Wunderground v.1.15,2013-03-07 11:46:00,
2013-03-07 06:51:00,25.0,20.3,30.37,NW,313,0.0,22.0,82,0.00,,,0.00,Wunderground v.1.15,2013-03-07 11:51:00,
2013-03-07 06:56:00,25.0,20.3,30.38,NW,313,0.0,22.0,82,0.00,,,0.00,Wunderground v.1.15,2013-03-07 11:56:00,
2013-03-07 07:06:00,25.0,20.0,30.38,NW,313,0.0,22.0,81,0.00,,,0.00,Wunderground v.1.15,2013-03-07 12:06:00,
2013-03-07 07:11:00,25.0,20.0,30.38,NNW,341,0.0,22.0,81,0.00,,,0.00,Wunderground v.1.15,2013-03-07 12:11:00,
2013-03-07 07:16:00,25.1,20.1,30.38,NW,313,0.0,22.0,81,0.00,,,0.00,Wunderground v.1.15,2013-03-07 12:16:00,
2013-03-07 07:21:00,25.1,19.8,30.38,NW,325,0.0,22.0,80,0.00,,,0.00,Wunderground v.1.15,2013-03-07 12:21:00,
2013-03-07 07:26:00,25.1,19.5,30.39,NNW,342,0.0,22.0,79,0.00,,,0.00,Wunderground v.1.15,2013-03-07 12:26:00,
2013-03-07 07:36:00,25.1,19.2,30.39,NW,322,1.0,22.0,78,0.00,,,0.00,Wunderground v.1.15,2013-03-07 12:36:00,
2013-03-07 07:41:00,25.2,19.3,30.39,NNW,334,1.0,1.0,78,0.00,,,0.00,Wunderground v.1.15,2013-03-07 12:41:00,
2013-03-07 07:46:00,25.2,19.3,30.39,NNW,334,0.0,22.0,78,0.00,,,0.00,Wunderground v.1.15,2013-03-07 12:46:00,
2013-03-07 07:51:00,25.2,19.3,30.40,NNW,336,0.0,22.0,78,0.00,,,0.00,Wunderground v.1.15,2013-03-07 12:51:00,
2013-03-07 07:56:00,25.3,19.4,30.40,NW,325,0.0,22.0,78,0.00,,,0.00,Wunderground v.1.15,2013-03-07 12:56:00,
2013-03-07 08:01:00,25.3,19.1,30.40,NW,326,1.0,1.0,77,0.00,,,0.00,Wunderground v.1.15,2013-03-07 13:01:00,
2013-03-07 08:11:00,25.3,19.1,30.41,NNW,341,1.0,22.0,77,0.00,,,0.00,Wunderground v.1.15,2013-03-07 13:11:00,
2013-03-07 08:16:00,25.4,19.5,30.41,NNW,329,2.0,22.0,78,0.00,,,0.00,Wunderground v.1.15,2013-03-07 13:16:00,
2013-03-07 08:21:00,25.4,19.5,30.41,WNW,291,1.0,1.0,78,0.00,,,0.00,Wunderground v.1.15,2013-03-07 13:21:00,
2013-03-07 08:31:00,25.4,19.5,30.42,NNW,340,2.0,2.0,78,0.00,,,0.00,Wunderground v.1.15,2013-03-07 13:31:00,
2013-03-07 08:41:00,25.4,19.5,30.42,NW,325,1.0,1.0,78,0.00,,,0.00,Wunderground v.1.15,2013-03-07 13:41:00,
2013-03-07 08:46:00,25.4,19.5,30.42,NW,310,0.0,22.0,78,0.00,,,0.00,Wunderground v.1.15,2013-03-07 13:46:00,
2013-03-07 08:51:00,25.4,18.9,30.42,North,355,1.0,1.0,76,0.00,,,0.00,Wunderground v.1.15,2013-03-07 13:51:00,
2013-03-07 08:56:00,25.5,19.0,30.42,NW,322,1.0,22.0,76,0.00,,,0.00,Wunderground v.1.15,2013-03-07 13:56:00,
2013-03-07 09:01:00,25.5,19.0,30.42,NNW,337,1.0,22.0,76,0.00,,,0.00,Wunderground v.1.15,2013-03-07 14:01:00,
2013-03-07 09:06:00,25.6,19.1,30.42,WNW,291,1.0,22.0,76,0.00,,,0.00,Wunderground v.1.15,2013-03-07 14:06:00,
2013-03-07 09:16:00,25.7,19.2,30.42,NW,308,0.0,22.0,76,0.00,,,0.00,Wunderground v.1.15,2013-03-07 14:16:00,
2013-03-07 09:21:00,25.8,19.0,30.42,NW,314,0.0,22.0,75,0.00,,,0.00,Wunderground v.1.15,2013-03-07 14:21:00,
2013-03-07 09:26:00,25.9,18.7,30.42,NW,320,1.0,22.0,74,0.00,,,0.00,Wunderground v.1.15,2013-03-07 14:26:00,
2013-03-07 09:31:00,26.0,18.8,30.42,NW,309,1.0,22.0,74,0.00,,,0.00,Wunderground v.1.15,2013-03-07 14:31:00,
2013-03-07 09:36:00,26.1,18.9,30.42,WNW,292,1.0,22.0,74,0.00,,,0.00,Wunderground v.1.15,2013-03-07 14:36:00,
2013-03-07 09:46:00,26.0,18.5,30.42,NW,322,2.0,22.0,73,0.00,,,0.00,Wunderground v.1.15,2013-03-07 14:46:00,
2013-03-07 09:51:00,26.0,18.8,30.42,NW,320,2.0,2.0,74,0.00,,,0.00,Wunderground v.1.15,2013-03-07 14:51:00,
2013-03-07 09:56:00,26.1,18.9,30.42,NNE,22,1.0,22.0,74,0.00,,,0.00,Wunderground v.1.15,2013-03-07 14:56:00,
2013-03-07 10:01:00,26.1,18.6,30.43,NNW,328,1.0,1.0,73,0.00,,,0.00,Wunderground v.1.15,2013-03-07 15:01:00,
2013-03-07 10:06:00,26.2,19.0,30.43,NNW,338,1.0,22.0,74,0.00,,,0.00,Wunderground v.1.15,2013-03-07 15:06:00,
2013-03-07 10:11:00,26.2,19.0,30.43,NW,307,2.0,22.0,74,0.00,,,0.00,Wunderground v.1.15,2013-03-07 15:11:00,
2013-03-07 10:21:00,26.2,19.4,30.43,NNW,335,1.0,22.0,75,0.00,,,0.00,Wunderground v.1.15,2013-03-07 15:21:00,
2013-03-07 10:26:00,26.3,19.5,30.43,NNW,331,1.0,22.0,75,0.00,,,0.00,Wunderground v.1.15,2013-03-07 15:26:00,
2013-03-07 10:31:00,26.3,19.1,30.43,NW,322,2.0,2.0,74,0.00,,,0.00,Wunderground v.1.15,2013-03-07 15:31:00,
2013-03-07 10:36:00,26.5,19.3,30.43,West,272,2.0,22.0,74,0.00,,,0.00,Wunderground v.1.15,2013-03-07 15:36:00,
2013-03-07 10:41:00,26.6,18.8,30.43,WNW,302,1.0,22.0,72,0.00,,,0.00,Wunderground v.1.15,2013-03-07 15:41:00,
2013-03-07 10:51:00,26.5,20.0,30.43,NNW,329,3.0,22.0,76,0.00,,,0.00,Wunderground v.1.15,2013-03-07 15:51:00,
2013-03-07 10:56:00,26.5,18.4,30.43,NW,325,4.0,22.0,71,0.00,,,0.00,Wunderground v.1.15,2013-03-07 15:56:00,
2013-03-07 11:01:00,26.6,20.1,30.43,NW,319,2.0,2.0,76,0.00,,,0.00,Wunderground v.1.15,2013-03-07 16:01:00,
2013-03-07 11:06:00,26.8,18.3,30.43,NNW,327,1.0,22.0,70,0.00,,,0.00,Wunderground v.1.15,2013-03-07 16:06:00,
2013-03-07 11:21:00,27.2,18.4,30.43,NW,320,2.0,22.0,69,0.00,,,0.00,Wunderground v.1.15,2013-03-07 16:21:00,
2013-03-07 11:26:00,27.4,19.2,30.43,West,275,2.0,22.0,71,0.00,,,0.00,Wunderground v.1.15,2013-03-07 16:26:00,
2013-03-07 11:36:00,27.6,18.1,30.43,NW,321,2.0,2.0,67,0.00,,,0.00,Wunderground v.1.15,2013-03-07 16:36:00,
2013-03-07 11:41:00,27.6,18.4,30.43,NW,309,4.0,4.0,68,0.00,,,0.00,Wunderground v.1.15,2013-03-07 16:41:00,
2013-03-07 11:46:00,27.7,18.5,30.43,WNW,284,3.0,5.0,68,0.00,,,0.00,Wunderground v.1.15,2013-03-07 16:46:00,
2013-03-07 11:51:00,27.2,19.0,30.43,WNW,290,4.0,22.0,71,0.00,,,0.01,Wunderground v.1.15,2013-03-07 16:51:00,
2013-03-07 11:56:00,27.0,17.8,30.44,WNW,296,5.0,22.0,68,0.00,,,0.01,Wunderground v.1.15,2013-03-07 16:56:00,
2013-03-07 12:01:00,26.8,18.0,30.43,NW,308,5.0,5.0,69,0.00,,,0.01,Wunderground v.1.15,2013-03-07 17:01:00,
2013-03-07 12:11:00,27.2,18.4,30.43,West,281,5.0,22.0,69,0.00,,,0.01,Wunderground v.1.15,2013-03-07 17:11:00,
2013-03-07 12:16:00,27.0,18.5,30.43,WNW,297,6.0,22.0,70,0.00,,,0.01,Wunderground v.1.15,2013-03-07 17:16:00,
2013-03-07 12:21:00,26.9,18.1,30.43,West,279,7.0,22.0,69,0.00,,,0.01,Wunderground v.1.15,2013-03-07 17:21:00,
2013-03-07 12:26:00,26.9,17.7,30.44,WNW,287,7.0,22.0,68,0.00,,,0.01,Wunderground v.1.15,2013-03-07 17:26:00,
2013-03-07 12:31:00,27.0,17.1,30.44,WNW,290,6.0,6.0,66,0.00,,,0.01,Wunderground v.1.15,2013-03-07 17:31:00,
2013-03-07 12:41:00,27.4,18.9,30.44,WNW,284,5.0,22.0,70,0.00,,,0.01,Wunderground v.1.15,2013-03-07 17:41:00,
2013-03-07 12:46:00,27.5,19.3,30.44,WNW,287,5.0,22.0,71,0.00,,,0.01,Wunderground v.1.15,2013-03-07 17:46:00,
2013-03-07 12:51:00,27.2,19.4,30.44,WNW,291,5.0,5.0,72,0.00,,,0.01,Wunderground v.1.15,2013-03-07 17:51:00,
2013-03-07 12:56:00,26.8,19.3,30.44,WNW,288,5.0,22.0,73,0.00,,,0.01,Wunderground v.1.15,2013-03-07 17:56:00,
2013-03-07 13:01:00,26.6,19.1,30.44,WNW,290,4.0,4.0,73,0.00,,,0.01,Wunderground v.1.15,2013-03-07 18:01:00,
2013-03-07 13:06:00,26.5,18.7,30.44,WNW,292,4.0,22.0,72,0.00,,,0.01,Wunderground v.1.15,2013-03-07 18:06:00,
2013-03-07 13:11:00,26.5,18.4,30.44,West,279,4.0,4.0,71,0.00,,,0.01,Wunderground v.1.15,2013-03-07 18:11:00,
2013-03-07 13:20:00,27.0,18.2,30.44,WNW,295,4.0,22.0,69,0.00,,,0.01,Wunderground v.1.15,2013-03-07 18:20:00,
2013-03-07 13:25:00,27.4,18.9,30.44,WNW,282,4.0,22.0,70,0.00,,,0.01,Wunderground v.1.15,2013-03-07 18:25:00,
2013-03-07 13:30:00,27.5,18.7,30.44,West,273,4.0,22.0,69,0.00,,,0.01,Wunderground v.1.15,2013-03-07 18:30:00,
2013-03-07 13:35:00,27.4,18.6,30.44,WNW,291,5.0,22.0,69,0.00,,,0.01,Wunderground v.1.15,2013-03-07 18:35:00,
2013-03-07 13:41:00,27.6,19.1,30.43,WNW,294,4.0,4.0,70,0.00,,,0.01,Wunderground v.1.15,2013-03-07 18:41:00,
2013-03-07 13:50:00,27.7,19.5,30.44,WNW,285,4.0,22.0,71,0.00,,,0.01,Wunderground v.1.15,2013-03-07 18:50:00,
2013-03-07 13:55:00,27.7,19.2,30.44,West,280,4.0,22.0,70,0.00,,,0.01,Wunderground v.1.15,2013-03-07 18:55:00,
2013-03-07 14:00:00,28.0,19.8,30.44,West,267,4.0,22.0,71,0.00,,,0.01,Wunderground v.1.15,2013-03-07 19:00:00,
2013-03-07 14:05:00,27.7,19.8,30.44,West,261,5.0,22.0,72,0.00,,,0.01,Wunderground v.1.15,2013-03-07 19:05:00,
2013-03-07 14:15:00,27.0,19.5,30.44,West,267,5.0,22.0,73,0.00,,,0.01,Wunderground v.1.15,2013-03-07 19:15:00,
2013-03-07 14:25:00,26.9,19.7,30.44,West,271,4.0,22.0,74,0.00,,,0.01,Wunderground v.1.15,2013-03-07 19:25:00,
2013-03-07 14:30:00,26.8,19.6,30.44,West,268,4.0,22.0,74,0.00,,,0.01,Wunderground v.1.15,2013-03-07 19:30:00,
2013-03-07 14:35:00,26.7,19.5,30.44,WNW,295,4.0,22.0,74,0.00,,,0.01,Wunderground v.1.15,2013-03-07 19:35:00,
2013-03-07 14:40:00,26.7,19.5,30.44,West,277,4.0,22.0,74,0.00,,,0.01,Wunderground v.1.15,2013-03-07 19:40:00,
2013-03-07 14:46:00,26.6,19.1,30.44,West,279,3.0,22.0,73,0.00,,,0.01,Wunderground v.1.15,2013-03-07 19:46:00,
2013-03-07 14:55:00,26.7,19.2,30.44,West,277,4.0,22.0,73,0.00,,,0.01,Wunderground v.1.15,2013-03-07 19:55:00,
2013-03-07 15:00:00,26.7,19.2,30.44,WNW,290,4.0,22.0,73,0.00,,,0.01,Wunderground v.1.15,2013-03-07 20:00:00,
2013-03-07 15:06:00,26.8,18.7,30.44,NW,309,3.0,22.0,71,0.00,,,0.01,Wunderground v.1.15,2013-03-07 20:06:00,
2013-03-07 15:11:00,26.8,19.3,30.45,West,266,3.0,3.0,73,0.00,,,0.01,Wunderground v.1.15,2013-03-07 20:11:00,
2013-03-07 15:16:00,26.8,19.3,30.45,WNW,284,2.0,22.0,73,0.00,,,0.01,Wunderground v.1.15,2013-03-07 20:16:00,
2013-03-07 15:21:00,26.8,19.3,30.45,WNW,284,2.0,22.0,73,0.00,,,0.01,Wunderground v.1.15,2013-03-07 20:21:00,
2013-03-07 15:31:00,26.7,19.2,30.45,WNW,291,3.0,3.0,73,0.00,,,0.01,Wunderground v.1.15,2013-03-07 20:31:00,
2013-03-07 15:36:00,26.8,19.3,30.45,WNW,294,2.0,22.0,73,0.00,,,0.01,Wunderground v.1.15,2013-03-07 20:36:00,
2013-03-07 15:41:00,26.8,19.3,30.45,WNW,298,2.0,22.0,73,0.00,,,0.01,Wunderground v.1.15,2013-03-07 20:41:00,
2013-03-07 15:46:00,26.8,19.3,30.45,WNW,287,2.0,22.0,73,0.00,,,0.01,Wunderground v.1.15,2013-03-07 20:46:00,
2013-03-07 15:51:00,26.8,19.0,30.46,WNW,294,2.0,2.0,72,0.00,,,0.01,Wunderground v.1.15,2013-03-07 20:51:00,
2013-03-07 15:56:00,26.8,19.3,30.45,West,266,2.0,22.0,73,0.00,,,0.01,Wunderground v.1.15,2013-03-07 20:56:00,
2013-03-07 16:06:00,26.9,19.7,30.45,West,268,1.0,3.0,74,0.00,,,0.01,Wunderground v.1.15,2013-03-07 21:06:00,
2013-03-07 16:11:00,26.9,19.7,30.45,WNW,295,2.0,22.0,74,0.00,,,0.01,Wunderground v.1.15,2013-03-07 21:11:00,
2013-03-07 16:16:00,26.8,19.0,30.45,NW,313,2.0,22.0,72,0.00,,,0.01,Wunderground v.1.15,2013-03-07 21:16:00,
2013-03-07 16:21:00,26.9,19.1,30.45,NW,322,2.0,22.0,72,0.00,,,0.01,Wunderground v.1.15,2013-03-07 21:21:00,
2013-03-07 16:26:00,26.9,19.4,30.45,West,264,2.0,22.0,73,0.00,,,0.01,Wunderground v.1.15,2013-03-07 21:26:00,
2013-03-07 16:36:00,26.9,19.7,30.45,West,263,2.0,2.0,74,0.00,,,0.01,Wunderground v.1.15,2013-03-07 21:36:00,
2013-03-07 16:41:00,26.9,19.7,30.45,WNW,300,2.0,2.0,74,0.00,,,0.01,Wunderground v.1.15,2013-03-07 21:41:00,
2013-03-07 16:46:00,27.1,19.3,30.45,NW,307,1.0,22.0,72,0.00,,,0.01,Wunderground v.1.15,2013-03-07 21:46:00,
2013-03-07 16:51:00,27.3,19.5,30.45,NW,310,1.0,22.0,72,0.00,,,0.01,Wunderground v.1.15,2013-03-07 21:51:00,
2013-03-07 16:56:00,27.4,19.6,30.45,NW,320,0.0,22.0,72,0.00,,,0.01,Wunderground v.1.15,2013-03-07 21:56:00,
2013-03-07 17:01:00,27.5,19.7,30.45,West,279,0.0,22.0,72,0.00,,,0.01,Wunderground v.1.15,2013-03-07 22:01:00,
2013-03-07 17:11:00,27.1,19.9,30.45,West,274,2.0,22.0,74,0.00,,,0.01,Wunderground v.1.15,2013-03-07 22:11:00,
2013-03-07 17:16:00,27.0,20.1,30.46,West,271,2.0,22.0,75,0.00,,,0.01,Wunderground v.1.15,2013-03-07 22:16:00,
2013-03-07 17:21:00,27.0,20.1,30.46,West,278,2.0,2.0,75,0.00,,,0.01,Wunderground v.1.15,2013-03-07 22:21:00,
2013-03-07 17:26:00,27.0,20.4,30.46,West,261,2.0,4.0,76,0.00,,,0.01,Wunderground v.1.15,2013-03-07 22:26:00,
2013-03-07 17:31:00,27.0,20.4,30.46,West,263,2.0,22.0,76,0.00,,,0.01,Wunderground v.1.15,2013-03-07 22:31:00,
2013-03-07 17:41:00,27.0,20.4,30.46,West,261,2.0,22.0,76,0.00,,,0.01,Wunderground v.1.15,2013-03-07 22:41:00,
2013-03-07 17:46:00,27.0,20.4,30.46,West,275,3.0,22.0,76,0.00,,,0.01,Wunderground v.1.15,2013-03-07 22:46:00,
2013-03-07 17:51:00,27.0,20.1,30.46,West,263,2.0,2.0,75,0.00,,,0.01,Wunderground v.1.15,2013-03-07 22:51:00,
2013-03-07 17:56:00,27.0,19.8,30.47,WNW,294,2.0,22.0,74,0.00,,,0.01,Wunderground v.1.15,2013-03-07 22:56:00,
2013-03-07 18:01:00,27.0,19.8,30.47,NW,315,2.0,2.0,74,0.00,,,0.01,Wunderground v.1.15,2013-03-07 23:01:00,
2013-03-07 18:06:00,27.0,19.5,30.47,North,355,1.0,4.0,73,0.00,,,0.01,Wunderground v.1.15,2013-03-07 23:06:00,
2013-03-07 18:16:00,27.0,19.2,30.47,NNE,32,0.0,22.0,72,0.00,,,0.01,Wunderground v.1.15,2013-03-07 23:16:00,
2013-03-07 18:21:00,27.0,19.5,30.47,NNE,32,0.0,22.0,73,0.00,,,0.01,Wunderground v.1.15,2013-03-07 23:21:00,
2013-03-07 18:26:00,27.0,19.2,30.47,NNW,333,0.0,22.0,72,0.00,,,0.01,Wunderground v.1.15,2013-03-07 23:26:00,
2013-03-07 18:31:00,27.0,19.5,30.47,WNW,302,0.0,22.0,73,0.00,,,0.01,Wunderground v.1.15,2013-03-07 23:31:00,
2013-03-07 18:36:00,26.9,19.7,30.47,WNW,286,0.0,22.0,74,0.00,,,0.01,Wunderground v.1.15,2013-03-07 23:36:00,
2013-03-07 18:46:00,26.9,20.0,30.48,West,277,0.0,22.0,75,0.00,,,0.01,Wunderground v.1.15,2013-03-07 23:46:00,
2013-03-07 18:51:00,26.8,19.3,30.48,NW,310,0.0,22.0,73,0.00,,,0.01,Wunderground v.1.15,2013-03-07 23:51:00,
2013-03-07 18:56:00,26.8,19.3,30.48,NNW,327,1.0,22.0,73,0.00,,,0.01,Wunderground v.1.15,2013-03-07 23:56:00,
2013-03-07 19:01:00,26.8,19.3,30.48,NW,304,1.0,1.0,73,0.00,,,0.01,Wunderground v.1.15,2013-03-08 00:01:00,
2013-03-07 19:06:00,26.7,19.2,30.48,NNW,329,1.0,22.0,73,0.00,,,0.01,Wunderground v.1.15,2013-03-08 00:06:00,
2013-03-07 19:11:00,26.7,19.2,30.48,NNW,329,0.0,22.0,73,0.00,,,0.01,Wunderground v.1.15,2013-03-08 00:11:00,
2013-03-07 19:21:00,26.7,19.5,30.48,NNE,26,0.0,22.0,74,0.00,,,0.01,Wunderground v.1.15,2013-03-08 00:21:00,
2013-03-07 19:26:00,26.7,19.5,30.48,NNE,26,0.0,22.0,74,0.00,,,0.01,Wunderground v.1.15,2013-03-08 00:26:00,
2013-03-07 19:31:00,26.8,19.6,30.48,East,91,0.0,22.0,74,0.00,,,0.01,Wunderground v.1.15,2013-03-08 00:31:00,
2013-03-07 19:36:00,26.8,19.3,30.48,East,91,0.0,22.0,73,0.00,,,0.01,Wunderground v.1.15,2013-03-08 00:36:00,
2013-03-07 19:41:00,26.8,19.6,30.49,East,90,0.0,22.0,74,0.00,,,0.01,Wunderground v.1.15,2013-03-08 00:41:00,
2013-03-07 19:51:00,26.8,19.6,30.49,NNW,330,0.0,22.0,74,0.00,,,0.01,Wunderground v.1.15,2013-03-08 00:51:00,
2013-03-07 19:56:00,26.8,19.6,30.49,NE,55,0.0,22.0,74,0.00,,,0.01,Wunderground v.1.15,2013-03-08 00:56:00,
2013-03-07 20:01:00,26.7,19.5,30.49,NE,55,0.0,22.0,74,0.00,,,0.01,Wunderground v.1.15,2013-03-08 01:01:00,
2013-03-07 20:06:00,26.7,19.5,30.49,NE,55,0.0,22.0,74,0.00,,,0.01,Wunderground v.1.15,2013-03-08 01:06:00,
2013-03-07 20:11:00,26.7,19.5,30.49,NE,55,0.0,22.0,74,0.00,,,0.01,Wunderground v.1.15,2013-03-08 01:11:00,
2013-03-07 20:16:00,26.7,19.5,30.49,NE,55,0.0,22.0,74,0.00,,,0.01,Wunderground v.1.15,2013-03-08 01:16:00,
2013-03-07 20:26:00,26.7,19.8,30.49,NE,55,0.0,22.0,75,0.00,,,0.01,Wunderground v.1.15,2013-03-08 01:26:00,
2013-03-07 20:31:00,26.7,19.8,30.49,NE,55,0.0,22.0,75,0.00,,,0.01,Wunderground v.1.15,2013-03-08 01:31:00,
2013-03-07 20:36:00,26.6,19.7,30.49,NE,55,0.0,22.0,75,0.00,,,0.01,Wunderground v.1.15,2013-03-08 01:36:00,
2013-03-07 20:41:00,26.5,19.6,30.49,NE,55,0.0,22.0,75,0.00,,,0.01,Wunderground v.1.15,2013-03-08 01:41:00,
2013-03-07 20:46:00,26.5,20.0,30.49,NE,55,0.0,22.0,76,0.00,,,0.01,Wunderground v.1.15,2013-03-08 01:46:00,
2013-03-07 20:55:00,26.5,20.0,30.49,NE,55,0.0,22.0,76,0.00,,,0.01,Wunderground v.1.15,2013-03-08 01:55:00,
2013-03-07 21:00:00,26.5,20.0,30.49,NE,55,0.0,22.0,76,0.00,,,0.01,Wunderground v.1.15,2013-03-08 02:00:00,
2013-03-07 21:06:00,26.5,20.0,30.49,NE,55,0.0,22.0,76,0.00,,,0.01,Wunderground v.1.15,2013-03-08 02:06:00,
2013-03-07 21:11:00,26.5,20.0,30.49,NE,55,0.0,22.0,76,0.00,,,0.01,Wunderground v.1.15,2013-03-08 02:11:00,
2013-03-07 21:16:00,26.5,20.0,30.49,NE,55,0.0,22.0,76,0.00,,,0.01,Wunderground v.1.15,2013-03-08 02:16:00,
2013-03-07 21:21:00,26.5,20.0,30.49,NE,55,0.0,22.0,76,0.00,,,0.01,Wunderground v.1.15,2013-03-08 02:21:00,
2013-03-07 21:26:00,26.5,20.0,30.49,NE,55,0.0,22.0,76,0.00,,,0.01,Wunderground v.1.15,2013-03-08 02:26:00,
2013-03-07 21:31:00,26.5,20.0,30.49,NE,55,0.0,22.0,76,0.00,,,0.01,Wunderground v.1.15,2013-03-08 02:31:00,
2013-03-07 21:36:00,26.5,20.0,30.49,NE,55,0.0,22.0,76,0.00,,,0.01,Wunderground v.1.15,2013-03-08 02:36:00,
2013-03-07 21:41:00,26.5,20.3,30.49,NE,55,0.0,22.0,77,0.00,,,0.01,Wunderground v.1.15,2013-03-08 02:41:00,
2013-03-07 21:46:00,26.5,20.3,30.49,NE,55,0.0,22.0,77,0.00,,,0.01,Wunderground v.1.15,2013-03-08 02:46:00,
2013-03-07 21:51:00,26.5,20.3,30.49,NE,55,0.0,22.0,77,0.00,,,0.01,Wunderground v.1.15,2013-03-08 02:51:00,
2013-03-07 22:01:00,26.5,20.3,30.49,NE,55,0.0,22.0,77,0.00,,,0.01,Wunderground v.1.15,2013-03-08 03:01:00,
2013-03-07 22:06:00,26.5,20.3,30.49,NE,55,0.0,22.0,77,0.00,,,0.01,Wunderground v.1.15,2013-03-08 03:06:00,
2013-03-07 22:11:00,26.5,20.3,30.50,NE,55,0.0,22.0,77,0.00,,,0.01,Wunderground v.1.15,2013-03-08 03:11:00,
2013-03-07 22:16:00,26.5,20.3,30.50,NE,55,0.0,22.0,77,0.00,,,0.01,Wunderground v.1.15,2013-03-08 03:16:00,
2013-03-07 22:21:00,26.5,20.3,30.50,NE,55,0.0,22.0,77,0.00,,,0.01,Wunderground v.1.15,2013-03-08 03:21:00,
2013-03-07 22:26:00,26.5,20.3,30.50,NE,55,0.0,22.0,77,0.00,,,0.01,Wunderground v.1.15,2013-03-08 03:26:00,
2013-03-07 22:36:00,26.5,20.6,30.49,NE,55,0.0,22.0,78,0.00,,,0.01,Wunderground v.1.15,2013-03-08 03:36:00,
2013-03-07 22:41:00,26.7,20.8,30.49,NE,55,0.0,22.0,78,0.00,,,0.01,Wunderground v.1.15,2013-03-08 03:41:00,
2013-03-07 22:46:00,26.7,20.8,30.49,NE,55,0.0,22.0,78,0.00,,,0.01,Wunderground v.1.15,2013-03-08 03:46:00,
2013-03-07 22:51:00,26.7,20.8,30.49,NE,55,0.0,22.0,78,0.00,,,0.01,Wunderground v.1.15,2013-03-08 03:51:00,
2013-03-07 22:56:00,26.7,20.8,30.49,NE,55,0.0,22.0,78,0.00,,,0.01,Wunderground v.1.15,2013-03-08 03:56:00,
2013-03-07 23:06:00,26.5,20.6,30.49,NE,55,0.0,22.0,78,0.00,,,0.01,Wunderground v.1.15,2013-03-08 04:06:00,
2013-03-07 23:11:00,26.5,20.9,30.49,NE,55,0.0,22.0,79,0.00,,,0.01,Wunderground v.1.15,2013-03-08 04:11:00,
2013-03-07 23:16:00,26.4,20.5,30.49,NE,55,0.0,22.0,78,0.00,,,0.01,Wunderground v.1.15,2013-03-08 04:16:00,
2013-03-07 23:21:00,26.3,20.7,30.49,NE,55,0.0,22.0,79,0.00,,,0.01,Wunderground v.1.15,2013-03-08 04:21:00,
2013-03-07 23:26:00,26.2,20.6,30.49,NE,55,0.0,22.0,79,0.00,,,0.01,Wunderground v.1.15,2013-03-08 04:26:00,
2013-03-07 23:31:00,26.1,20.5,30.49,NE,55,0.0,22.0,79,0.00,,,0.01,Wunderground v.1.15,2013-03-08 04:31:00,
2013-03-07 23:41:00,26.1,20.5,30.49,NE,41,0.0,22.0,79,0.00,,,0.01,Wunderground v.1.15,2013-03-08 04:41:00,
2013-03-07 23:51:00,26.2,20.9,30.49,NE,42,0.0,22.0,80,0.00,,,0.01,Wunderground v.1.15,2013-03-08 04:51:00,
2013-03-07 23:56:00,26.1,20.8,30.50,NE,42,0.0,22.0,80,0.00,,,0.01,Wunderground v.1.15,2013-03-08 04:56:00,